Time,TemperatureF,DewpointF,PressureIn,WindDirection,WindDirectionDegrees,WindSpeedMPH,WindSpeedGustMPH,Humidity,HourlyPrecipIn,Conditions,Clouds,dailyrainin,SoftwareType,DateUTC
2013-05-25 00:01:00,44.4,35.6,30.23,WNW,292,3.7,3.7,71,0.00,RA,,0.00,WeatherDisplay:10.37,2013-05-25 04:01:00,
2013-05-25 00:02:00,44.4,35.9,30.23,South,180,4.1,4.6,72,0.00,RA,,0.00,WeatherDisplay:10.37,2013-05-25 04:02:00,
2013-05-25 00:07:00,44.2,35.4,30.23,WNW,292,3.2,3.7,71,0.00,RA,,0.00,WeatherDisplay:10.37,2013-05-25 04:07:00,
2013-05-25 00:12:00,44.2,35.4,30.23,WSW,248,2.2,4.6,71,0.00,BKN,,0.00,WeatherDisplay:10.37,2013-05-25 04:12:00,
2013-05-25 00:17:00,44.1,35.6,30.23,SSW,202,2.4,3.7,72,0.00,BKN,,0.00,WeatherDisplay:10.37,2013-05-25 04:17:00,
2013-05-25 00:22:00,43.9,35.5,30.23,West,270,3.5,5.8,72,0.00,BKN,,0.00,WeatherDisplay:10.37,2013-05-25 04:22:00,
2013-05-25 00:27:00,43.9,35.5,30.23,SW,225,4.3,5.8,72,0.00,BKN,,0.00,WeatherDisplay:10.37,2013-05-25 04:27:00,
2013-05-25 00:32:00,43.7,35.3,30.23,West,270,3.8,5.8,72,0.00,BKN,,0.00,WeatherDisplay:10.37,2013-05-25 04:32:00,
2013-05-25 00:37:00,43.5,35.1,30.23,WSW,248,3.7,5.8,72,0.00,BKN,,0.00,WeatherDisplay:10.37,2013-05-25 04:37:00,
2013-05-25 00:42:00,43.3,35.2,30.23,West,270,4.1,5.8,73,0.00,BKN,,0.00,WeatherDisplay:10.37,2013-05-25 04:42:00,
2013-05-25 00:47:00,43.0,34.9,30.23,WSW,248,1.6,3.5,73,0.00,BKN,,0.00,WeatherDisplay:10.37,2013-05-25 04:47:00,
2013-05-25 00:52:00,42.8,35.1,30.23,West,270,1.2,2.3,74,0.00,BKN,,0.00,WeatherDisplay:10.37,2013-05-25 04:52:00,
2013-05-25 00:57:00,42.4,35.0,30.22,NW,315,3.9,4.6,75,0.00,BKN,,0.00,WeatherDisplay:10.37,2013-05-25 04:57:00,
2013-05-25 01:02:00,42.3,34.9,30.22,NNE,22,2.6,4.6,75,0.00,BKN,,0.00,WeatherDisplay:10.37,2013-05-25 05:02:00,
2013-05-25 01:07:00,41.9,34.9,30.22,West,270,1.7,2.3,76,0.00,BKN,,0.00,WeatherDisplay:10.37,2013-05-25 05:07:00,
2013-05-25 01:12:00,41.9,34.9,30.22,NNW,338,3.3,4.6,76,0.00,SCT,,0.00,WeatherDisplay:10.37,2013-05-25 05:12:00,
2013-05-25 01:17:00,41.7,35.0,30.22,West,270,1.9,2.3,77,0.00,SCT,,0.00,WeatherDisplay:10.37,2013-05-25 05:17:00,
2013-05-25 01:22:00,41.5,34.8,30.22,WNW,292,1.9,2.7,77,0.00,SCT,,0.00,WeatherDisplay:10.37,2013-05-25 05:22:00,
2013-05-25 01:27:00,41.2,34.9,30.22,NW,315,0.2,1.7,78,0.00,SCT,,0.00,WeatherDisplay:10.37,2013-05-25 05:27:00,
2013-05-25 01:32:00,41.0,35.0,30.22,NNW,338,2.8,4.6,79,0.00,SCT,,0.00,WeatherDisplay:10.37,2013-05-25 05:32:00,
2013-05-25 01:37:00,40.8,34.8,30.22,West,270,1.5,2.3,79,0.00,SCT,,0.00,WeatherDisplay:10.37,2013-05-25 05:37:00,
2013-05-25 01:42:00,40.5,34.8,30.22,West,270,2.5,3.5,80,0.00,SCT,,0.00,WeatherDisplay:10.37,2013-05-25 05:42:00,
2013-05-25 01:47:00,40.3,34.6,30.22,West,270,1.8,2.3,80,0.00,SCT,,0.00,WeatherDisplay:10.37,2013-05-25 05:47:00,
2013-05-25 01:52:00,40.1,34.7,30.22,SW,225,1.8,2.3,81,0.00,SCT,,0.00,WeatherDisplay:10.37,2013-05-25 05:52:00,
2013-05-25 01:57:00,40.1,34.7,30.22,West,270,2.9,3.5,81,0.00,SCT,,0.00,WeatherDisplay:10.37,2013-05-25 05:57:00,
2013-05-25 02:02:00,40.1,35.0,30.22,West,270,3.5,4.6,82,0.00,SCT,,0.00,WeatherDisplay:10.37,2013-05-25 06:02:00,
2013-05-25 02:07:00,40.1,35.0,30.22,SW,225,0.6,2.2,82,0.00,SCT,,0.00,WeatherDisplay:10.37,2013-05-25 06:07:00,
2013-05-25 02:12:00,40.1,35.0,30.22,West,270,3.0,3.5,82,0.00,FEW,,0.00,WeatherDisplay:10.37,2013-05-25 06:12:00,
2013-05-25 02:17:00,40.3,35.2,30.22,WNW,292,1.5,1.7,82,0.00,FEW,,0.00,WeatherDisplay:10.37,2013-05-25 06:17:00,
2013-05-25 02:22:00,40.3,35.2,30.22,SSW,202,3.2,4.6,82,0.00,FEW,,0.00,WeatherDisplay:10.37,2013-05-25 06:22:00,
2013-05-25 02:27:00,40.3,35.2,30.22,SW,225,1.8,2.7,82,0.00,FEW,,0.00,WeatherDisplay:10.37,2013-05-25 06:27:00,
2013-05-25 02:32:00,40.3,35.2,30.22,West,270,2.8,3.5,82,0.00,FEW,,0.00,WeatherDisplay:10.37,2013-05-25 06:32:00,
2013-05-25 02:37:00,40.3,35.2,30.22,West,270,0.7,2.7,82,0.00,FEW,,0.00,WeatherDisplay:10.37,2013-05-25 06:37:00,
2013-05-25 02:42:00,40.3,35.2,30.22,West,270,3.2,4.6,82,0.00,FEW,,0.00,WeatherDisplay:10.37,2013-05-25 06:42:00,
2013-05-25 02:47:00,40.1,35.4,30.22,West,270,1.4,3.7,83,0.00,FEW,,0.00,WeatherDisplay:10.37,2013-05-25 06:47:00,
2013-05-25 02:52:00,40.1,35.4,30.22,West,270,2.6,3.5,83,0.00,FEW,,0.00,WeatherDisplay:10.37,2013-05-25 06:52:00,
2013-05-25 02:57:00,40.3,35.5,30.22,West,270,3.8,4.6,83,0.00,FEW,,0.00,WeatherDisplay:10.37,2013-05-25 06:57:00,
2013-05-25 03:02:00,40.3,35.5,30.22,WNW,292,3.8,4.6,83,0.00,FEW,,0.00,WeatherDisplay:10.37,2013-05-25 07:02:00,
2013-05-25 03:07:00,40.3,35.5,30.22,West,270,1.3,2.3,83,0.00,FEW,,0.00,WeatherDisplay:10.37,2013-05-25 07:07:00,
2013-05-25 03:12:00,40.1,35.7,30.22,WSW,248,3.1,3.7,84,0.00,BKN,,0.00,WeatherDisplay:10.37,2013-05-25 07:12:00,
2013-05-25 03:17:00,40.1,35.7,30.22,SW,225,2.0,2.3,84,0.00,BKN,,0.00,WeatherDisplay:10.37,2013-05-25 07:17:00,
2013-05-25 03:22:00,39.9,35.5,30.22,West,270,1.9,4.6,84,0.00,BKN,,0.00,WeatherDisplay:10.37,2013-05-25 07:22:00,
2013-05-25 03:27:00,39.9,35.8,30.22,West,270,1.8,2.3,85,0.00,BKN,,0.00,WeatherDisplay:10.37,2013-05-25 07:27:00,
2013-05-25 03:32:00,39.7,35.6,30.23,West,270,1.7,1.7,85,0.00,BKN,,0.00,WeatherDisplay:10.37,2013-05-25 07:32:00,
2013-05-25 03:37:00,39.6,35.8,30.23,WSW,248,0.0,1.7,86,0.00,BKN,,0.00,WeatherDisplay:10.37,2013-05-25 07:37:00,
2013-05-25 03:42:00,39.6,36.0,30.23,West,270,2.3,3.7,87,0.00,BKN,,0.00,WeatherDisplay:10.37,2013-05-25 07:42:00,
2013-05-25 03:47:00,39.7,36.1,30.23,West,270,2.6,3.5,87,0.00,BKN,,0.00,WeatherDisplay:10.37,2013-05-25 07:47:00,
2013-05-25 03:52:00,39.9,36.3,30.23,West,270,2.0,2.3,87,0.00,BKN,,0.00,WeatherDisplay:10.37,2013-05-25 07:52:00,
2013-05-25 03:57:00,39.9,36.3,30.24,West,270,0.8,1.1,87,0.00,BKN,,0.00,WeatherDisplay:10.37,2013-05-25 07:57:00,
2013-05-25 04:02:00,39.7,36.1,30.24,WSW,248,2.4,3.5,87,0.00,FEW,,0.00,WeatherDisplay:10.37,2013-05-25 08:02:00,
2013-05-25 04:07:00,39.7,36.1,30.23,SW,225,1.4,1.4,87,0.00,FEW,,0.00,WeatherDisplay:10.37,2013-05-25 08:07:00,
2013-05-25 04:12:00,39.4,36.1,30.23,West,270,1.4,1.4,88,0.00,FEW,,0.00,WeatherDisplay:10.37,2013-05-25 08:12:00,
2013-05-25 04:17:00,39.2,36.2,30.24,WSW,248,1.5,2.3,89,0.00,FEW,,0.00,WeatherDisplay:10.37,2013-05-25 08:17:00,
2013-05-25 04:22:00,39.0,36.3,30.24,West,270,2.9,3.5,90,0.00,FEW,,0.00,WeatherDisplay:10.37,2013-05-25 08:22:00,
2013-05-25 04:27:00,39.0,36.3,30.24,WSW,248,1.5,2.7,90,0.00,FEW,,0.00,WeatherDisplay:10.37,2013-05-25 08:27:00,
2013-05-25 04:32:00,39.0,36.6,30.23,West,270,2.1,2.3,91,0.00,FEW,,0.00,WeatherDisplay:10.37,2013-05-25 08:32:00,
2013-05-25 04:37:00,38.8,36.4,30.23,West,270,1.7,2.3,91,0.00,FEW,,0.00,WeatherDisplay:10.37,2013-05-25 08:37:00,
2013-05-25 04:42:00,38.8,36.4,30.22,WSW,248,0.0,0.0,91,0.00,FEW,,0.00,WeatherDisplay:10.37,2013-05-25 08:42:00,
2013-05-25 04:47:00,38.7,36.6,30.22,SW,225,0.9,1.1,92,0.00,FEW,,0.00,WeatherDisplay:10.37,2013-05-25 08:47:00,
2013-05-25 04:52:00,38.5,36.4,30.22,SW,225,0.0,0.0,92,0.00,FEW,,0.00,WeatherDisplay:10.37,2013-05-25 08:52:00,
2013-05-25 04:57:00,38.3,36.5,30.22,West,270,0.4,1.1,93,0.00,FEW,,0.00,WeatherDisplay:10.37,2013-05-25 08:57:00,
2013-05-25 05:02:00,38.1,36.5,30.22,SW,225,1.4,2.3,94,0.00,FEW,,0.00,WeatherDisplay:10.37,2013-05-25 09:02:00,
2013-05-25 05:07:00,38.1,36.5,30.22,WSW,248,0.7,1.7,94,0.00,FEW,,0.00,WeatherDisplay:10.37,2013-05-25 09:07:00,
2013-05-25 05:12:00,37.9,36.3,30.22,SW,225,2.0,2.3,94,0.00,FEW,,0.00,WeatherDisplay:10.37,2013-05-25 09:12:00,
2013-05-25 05:17:00,37.8,36.5,30.22,SW,225,2.6,3.5,95,0.00,FEW,,0.00,WeatherDisplay:10.37,2013-05-25 09:17:00,
2013-05-25 05:22:00,37.8,36.5,30.23,SW,225,0.9,1.7,95,0.00,FEW,,0.00,WeatherDisplay:10.37,2013-05-25 09:22:00,
2013-05-25 05:27:00,37.8,36.5,30.23,SW,225,1.9,2.3,95,0.00,FEW,,0.00,WeatherDisplay:10.37,2013-05-25 09:27:00,
2013-05-25 05:32:00,37.8,36.5,30.23,SSW,202,0.0,0.0,95,0.00,FEW,,0.00,WeatherDisplay:10.37,2013-05-25 09:32:00,
2013-05-25 05:37:00,37.6,36.3,30.23,SSW,202,0.5,1.7,95,0.00,FEW,,0.00,WeatherDisplay:10.37,2013-05-25 09:37:00,
2013-05-25 05:42:00,37.6,36.3,30.23,WSW,248,1.6,1.6,95,0.00,FEW,,0.00,WeatherDisplay:10.37,2013-05-25 09:42:00,
2013-05-25 05:47:00,37.6,36.3,30.23,WSW,248,2.0,2.3,95,0.00,FEW,,0.00,WeatherDisplay:10.37,2013-05-25 09:47:00,
2013-05-25 05:52:00,37.4,36.1,30.23,WSW,248,0.0,0.0,95,0.00,FEW,,0.00,WeatherDisplay:10.37,2013-05-25 09:52:00,
2013-05-25 05:57:00,37.2,35.9,30.23,WSW,248,0.0,0.0,95,0.00,FEW,,0.00,WeatherDisplay:10.37,2013-05-25 09:57:00,
2013-05-25 06:02:00,37.2,35.9,30.23,West,270,0.0,0.0,95,0.00,FEW,,0.00,WeatherDisplay:10.37,2013-05-25 10:02:00,
2013-05-25 06:07:00,37.4,36.1,30.23,WNW,292,1.6,3.5,95,0.00,FEW,,0.00,WeatherDisplay:10.37,2013-05-25 10:07:00,
2013-05-25 06:12:00,37.9,36.6,30.23,West,270,0.2,1.1,95,0.00,FEW,,0.00,WeatherDisplay:10.37,2013-05-25 10:12:00,
2013-05-25 06:17:00,38.5,37.2,30.24,WSW,248,0.0,0.0,95,0.00,FEW,,0.00,WeatherDisplay:10.37,2013-05-25 10:17:00,
2013-05-25 06:22:00,39.2,37.9,30.24,SW,225,2.6,3.5,95,0.00,FEW,,0.00,WeatherDisplay:10.37,2013-05-25 10:22:00,
2013-05-25 06:27:00,39.9,38.3,30.24,WSW,248,0.7,1.1,94,0.00,FEW,,0.00,WeatherDisplay:10.37,2013-05-25 10:27:00,
2013-05-25 06:32:00,41.0,38.9,30.24,SW,225,0.0,1.1,92,0.00,FEW,,0.00,WeatherDisplay:10.37,2013-05-25 10:32:00,
2013-05-25 06:37:00,41.5,38.8,30.24,West,270,2.2,2.3,90,0.00,FEW,,0.00,WeatherDisplay:10.37,2013-05-25 10:37:00,
2013-05-25 06:42:00,42.4,39.1,30.24,West,270,2.5,2.5,88,0.00,FEW,,0.00,WeatherDisplay:10.37,2013-05-25 10:42:00,
2013-05-25 06:47:00,43.0,39.1,30.24,WSW,248,2.9,3.5,86,0.00,FEW,,0.00,WeatherDisplay:10.37,2013-05-25 10:47:00,
2013-05-25 06:52:00,43.2,39.0,30.24,WNW,292,4.4,5.8,85,0.00,FEW,,0.00,WeatherDisplay:10.37,2013-05-25 10:52:00,
2013-05-25 06:57:00,43.5,39.0,30.24,West,270,3.5,3.5,84,0.00,FEW,,0.00,WeatherDisplay:10.37,2013-05-25 10:57:00,
2013-05-25 07:02:00,44.2,39.4,30.24,West,270,3.6,4.6,83,0.00,FEW,,0.00,WeatherDisplay:10.37,2013-05-25 11:02:00,
2013-05-25 07:07:00,44.2,39.1,30.24,West,270,4.1,5.8,82,0.00,FEW,,0.00,WeatherDisplay:10.37,2013-05-25 11:07:00,
2013-05-25 07:12:00,45.1,39.6,30.24,WSW,248,2.4,3.5,81,0.00,SCT,,0.00,WeatherDisplay:10.37,2013-05-25 11:12:00,
2013-05-25 07:17:00,45.5,39.7,30.25,West,270,5.7,6.9,80,0.00,SCT,,0.00,WeatherDisplay:10.37,2013-05-25 11:17:00,
2013-05-25 07:22:00,45.7,39.6,30.25,West,270,4.6,6.9,79,0.00,SCT,,0.00,WeatherDisplay:10.37,2013-05-25 11:22:00,
2013-05-25 07:27:00,46.2,39.4,30.25,West,270,6.8,8.1,77,0.00,SCT,,0.00,WeatherDisplay:10.37,2013-05-25 11:27:00,
2013-05-25 07:32:00,45.9,39.1,30.24,WSW,248,3.9,5.8,77,0.00,SCT,,0.00,WeatherDisplay:10.37,2013-05-25 11:32:00,
2013-05-25 07:37:00,46.0,39.2,30.24,WSW,248,5.1,6.9,77,0.00,SCT,,0.00,WeatherDisplay:10.37,2013-05-25 11:37:00,
2013-05-25 07:42:00,46.9,39.0,30.25,WNW,292,6.0,6.9,74,0.00,SCT,,0.00,WeatherDisplay:10.37,2013-05-25 11:42:00,
2013-05-25 07:47:00,46.4,38.6,30.25,West,270,4.5,5.8,74,0.00,SCT,,0.00,WeatherDisplay:10.37,2013-05-25 11:47:00,
2013-05-25 07:52:00,46.4,38.6,30.25,West,270,5.3,5.8,74,0.00,SCT,,0.00,WeatherDisplay:10.37,2013-05-25 11:52:00,
2013-05-25 07:57:00,47.7,38.8,30.25,WSW,248,4.8,5.8,71,0.00,SCT,,0.00,WeatherDisplay:10.37,2013-05-25 11:57:00,
2013-05-25 08:02:00,48.4,39.1,30.25,NNE,22,4.9,5.8,70,0.00,SCT,,0.00,WeatherDisplay:10.37,2013-05-25 12:02:00,
2013-05-25 08:07:00,48.2,38.5,30.25,SSW,202,6.3,9.2,69,0.00,SCT,,0.00,WeatherDisplay:10.37,2013-05-25 12:07:00,
2013-05-25 08:12:00,48.4,38.7,30.25,NW,315,9.4,9.4,69,0.00,SCT,,0.00,WeatherDisplay:10.37,2013-05-25 12:12:00,
2013-05-25 08:17:00,47.7,38.4,30.24,WNW,292,3.1,4.7,70,0.00,SCT,,0.00,WeatherDisplay:10.37,2013-05-25 12:17:00,
2013-05-25 08:22:00,46.4,37.1,30.24,West,270,7.8,9.2,70,0.00,SCT,,0.00,WeatherDisplay:10.37,2013-05-25 12:22:00,
2013-05-25 08:27:00,47.5,38.6,30.24,NW,315,3.9,6.3,71,0.00,SCT,,0.00,WeatherDisplay:10.37,2013-05-25 12:27:00,
2013-05-25 08:32:00,48.2,38.1,30.25,West,270,5.5,9.2,68,0.00,SCT,,0.00,WeatherDisplay:10.37,2013-05-25 12:32:00,
2013-05-25 08:37:00,48.0,38.3,30.25,NW,315,4.5,6.3,69,0.00,SCT,,0.00,WeatherDisplay:10.37,2013-05-25 12:37:00,
2013-05-25 08:42:00,48.6,38.1,30.24,SSW,202,5.1,6.9,67,0.00,SCT,,0.00,WeatherDisplay:10.37,2013-05-25 12:42:00,
2013-05-25 08:47:00,49.5,38.2,30.24,West,270,6.0,6.9,65,0.00,SCT,,0.00,WeatherDisplay:10.37,2013-05-25 12:47:00,
2013-05-25 08:52:00,49.6,37.9,30.24,SW,225,4.4,6.9,64,0.00,SCT,,0.00,WeatherDisplay:10.37,2013-05-25 12:52:00,
2013-05-25 08:57:00,50.0,37.9,30.24,NNE,22,4.8,6.3,63,0.00,SCT,,0.00,WeatherDisplay:10.37,2013-05-25 12:57:00,
2013-05-25 09:02:00,49.1,38.2,30.24,WNW,292,4.9,5.8,66,0.00,SCT,,0.00,WeatherDisplay:10.37,2013-05-25 13:02:00,
2013-05-25 09:07:00,48.7,38.2,30.24,NW,315,6.5,8.1,67,0.00,SCT,,0.00,WeatherDisplay:10.37,2013-05-25 13:07:00,
2013-05-25 09:12:00,48.6,38.1,30.24,ESE,112,4.7,5.8,67,0.00,SCT,,0.00,WeatherDisplay:10.37,2013-05-25 13:12:00,
2013-05-25 09:17:00,49.1,38.2,30.24,SW,225,4.7,5.8,66,0.00,SCT,,0.00,WeatherDisplay:10.37,2013-05-25 13:17:00,
2013-05-25 09:22:00,49.1,37.8,30.24,WNW,292,5.4,5.8,65,0.00,SCT,,0.00,WeatherDisplay:10.37,2013-05-25 13:22:00,
2013-05-25 09:27:00,49.5,37.8,30.24,NNW,338,5.7,6.9,64,0.00,SCT,,0.00,WeatherDisplay:10.37,2013-05-25 13:27:00,
2013-05-25 09:32:00,50.0,38.3,30.25,ESE,112,5.3,6.9,64,0.00,SCT,,0.00,WeatherDisplay:10.37,2013-05-25 13:32:00,
2013-05-25 09:37:00,50.0,37.9,30.25,West,270,4.8,10.4,63,0.00,SCT,,0.00,WeatherDisplay:10.37,2013-05-25 13:37:00,
2013-05-25 09:42:00,50.5,37.5,30.25,WNW,292,4.4,5.8,61,0.00,SCT,,0.00,WeatherDisplay:10.37,2013-05-25 13:42:00,
2013-05-25 09:47:00,50.0,37.1,30.25,NNE,22,4.0,4.6,61,0.00,SCT,,0.00,WeatherDisplay:10.37,2013-05-25 13:47:00,
2013-05-25 09:52:00,49.6,36.7,30.25,NW,315,6.2,8.1,61,0.00,SCT,,0.00,WeatherDisplay:10.37,2013-05-25 13:52:00,
2013-05-25 09:57:00,50.9,38.3,30.24,West,270,5.7,8.8,62,0.00,SCT,,0.00,WeatherDisplay:10.37,2013-05-25 13:57:00,
2013-05-25 10:02:00,49.6,36.7,30.24,SW,225,6.0,6.9,61,0.00,SCT,,0.00,WeatherDisplay:10.37,2013-05-25 14:02:00,
2013-05-25 10:07:00,50.5,37.1,30.24,SW,225,3.3,4.6,60,0.00,SCT,,0.00,WeatherDisplay:10.37,2013-05-25 14:07:00,
2013-05-25 10:12:00,52.7,37.9,30.24,NNE,22,2.4,3.5,57,0.00,SCT,,0.00,WeatherDisplay:10.37,2013-05-25 14:12:00,
2013-05-25 10:17:00,51.4,37.1,30.25,West,270,3.7,5.3,58,0.00,SCT,,0.00,WeatherDisplay:10.37,2013-05-25 14:17:00,
2013-05-25 10:22:00,50.9,35.7,30.25,NW,315,7.0,8.1,56,0.00,SCT,,0.00,WeatherDisplay:10.37,2013-05-25 14:22:00,
2013-05-25 10:27:00,50.5,34.5,30.25,NNE,22,3.6,6.9,54,0.00,SCT,,0.00,WeatherDisplay:10.37,2013-05-25 14:27:00,
2013-05-25 10:32:00,51.1,36.4,30.25,SSW,202,2.7,3.5,57,0.00,SCT,,0.00,WeatherDisplay:10.37,2013-05-25 14:32:00,
2013-05-25 10:37:00,52.2,37.0,30.25,West,270,6.0,8.1,56,0.00,SCT,,0.00,WeatherDisplay:10.37,2013-05-25 14:37:00,
2013-05-25 10:42:00,50.2,34.6,30.25,SSW,202,6.1,6.9,55,0.00,SCT,,0.00,WeatherDisplay:10.37,2013-05-25 14:42:00,
2013-05-25 10:47:00,50.2,35.5,30.25,ESE,112,6.4,8.1,57,0.00,SCT,,0.00,WeatherDisplay:10.37,2013-05-25 14:47:00,
2013-05-25 10:52:00,51.1,35.5,30.25,West,270,5.7,6.9,55,0.00,SCT,,0.00,WeatherDisplay:10.37,2013-05-25 14:52:00,
2013-05-25 10:57:00,50.2,33.2,30.25,West,270,6.2,6.9,52,0.00,SCT,,0.00,WeatherDisplay:10.37,2013-05-25 14:57:00,
2013-05-25 11:02:00,50.9,34.4,30.25,West,270,5.3,6.8,53,0.00,SCT,,0.00,WeatherDisplay:10.37,2013-05-25 15:02:00,
2013-05-25 11:07:00,51.1,34.5,30.25,SW,225,8.7,9.4,53,0.00,SCT,,0.00,WeatherDisplay:10.37,2013-05-25 15:07:00,
2013-05-25 11:12:00,52.5,34.9,30.25,NW,315,8.9,10.4,51,0.00,BKN,,0.00,WeatherDisplay:10.37,2013-05-25 15:12:00,
2013-05-25 11:17:00,50.5,33.0,30.25,West,270,8.4,10.9,51,0.00,BKN,,0.00,WeatherDisplay:10.37,2013-05-25 15:17:00,
2013-05-25 11:22:00,52.5,35.8,30.25,NNW,338,6.9,10.4,53,0.00,BKN,,0.00,WeatherDisplay:10.37,2013-05-25 15:22:00,
2013-05-25 11:27:00,52.5,35.4,30.25,SSE,158,6.1,10.4,52,0.00,BKN,,0.00,WeatherDisplay:10.37,2013-05-25 15:27:00,
2013-05-25 11:32:00,52.9,34.2,30.25,NNW,338,7.7,11.4,49,0.00,BKN,,0.00,WeatherDisplay:10.37,2013-05-25 15:32:00,
2013-05-25 11:37:00,52.5,33.9,30.25,WSW,248,10.7,11.9,49,0.00,BKN,,0.00,WeatherDisplay:10.37,2013-05-25 15:37:00,
2013-05-25 11:42:00,51.1,33.1,30.26,West,270,8.8,10.4,50,0.00,BKN,,0.00,WeatherDisplay:10.37,2013-05-25 15:42:00,
2013-05-25 11:47:00,52.0,34.4,30.26,NNE,22,3.2,4.7,51,0.00,BKN,,0.00,WeatherDisplay:10.37,2013-05-25 15:47:00,
2013-05-25 11:52:00,52.5,33.4,30.26,West,270,11.6,13.8,48,0.00,BKN,,0.00,WeatherDisplay:10.37,2013-05-25 15:52:00,
2013-05-25 11:57:00,53.1,33.9,30.25,West,270,10.9,10.9,48,0.00,BKN,,0.00,WeatherDisplay:10.37,2013-05-25 15:57:00,
2013-05-25 12:02:00,54.0,34.7,30.25,NNW,338,8.2,11.5,48,0.00,BKN,,0.00,WeatherDisplay:10.37,2013-05-25 16:02:00,
2013-05-25 12:07:00,52.9,33.7,30.25,WNW,292,12.3,16.1,48,0.00,BKN,,0.00,WeatherDisplay:10.37,2013-05-25 16:07:00,
2013-05-25 12:12:00,52.9,33.2,30.25,WSW,248,7.9,8.1,47,0.00,SCT,,0.00,WeatherDisplay:10.37,2013-05-25 16:12:00,
2013-05-25 12:17:00,53.1,34.4,30.25,SW,225,7.2,9.2,49,0.00,SCT,,0.00,WeatherDisplay:10.37,2013-05-25 16:17:00,
2013-05-25 12:22:00,53.2,34.0,30.25,NNW,338,8.4,9.2,48,0.00,SCT,,0.00,WeatherDisplay:10.37,2013-05-25 16:22:00,
2013-05-25 12:27:00,53.2,34.5,30.25,WSW,248,6.0,8.3,49,0.00,SCT,,0.00,WeatherDisplay:10.37,2013-05-25 16:27:00,
2013-05-25 12:32:00,53.2,35.0,30.25,West,270,8.9,10.4,50,0.00,SCT,,0.00,WeatherDisplay:10.37,2013-05-25 16:32:00,
2013-05-25 12:37:00,53.1,35.9,30.25,South,180,7.8,11.9,52,0.00,SCT,,0.00,WeatherDisplay:10.37,2013-05-25 16:37:00,
2013-05-25 12:42:00,53.2,35.0,30.24,NNE,22,7.2,8.1,50,0.00,SCT,,0.00,WeatherDisplay:10.37,2013-05-25 16:42:00,
2013-05-25 12:47:00,54.7,36.9,30.24,West,270,5.6,8.1,51,0.00,SCT,,0.00,WeatherDisplay:10.37,2013-05-25 16:47:00,
2013-05-25 12:52:00,53.8,34.6,30.24,SW,225,8.7,10.4,48,0.00,SCT,,0.00,WeatherDisplay:10.37,2013-05-25 16:52:00,
2013-05-25 12:57:00,54.3,37.0,30.24,WSW,248,6.5,6.9,52,0.00,SCT,,0.00,WeatherDisplay:10.37,2013-05-25 16:57:00,
2013-05-25 13:02:00,53.4,35.7,30.24,West,270,7.9,10.4,51,0.00,SCT,,0.00,WeatherDisplay:10.37,2013-05-25 17:02:00,
2013-05-25 13:07:00,54.3,36.0,30.24,West,270,7.8,9.4,50,0.00,SCT,,0.00,WeatherDisplay:10.37,2013-05-25 17:07:00,
2013-05-25 13:12:00,53.6,35.9,30.24,West,270,7.6,10.9,51,0.00,SCT,,0.00,WeatherDisplay:10.37,2013-05-25 17:12:00,
2013-05-25 13:17:00,54.1,35.3,30.24,West,270,7.2,9.4,49,0.00,SCT,,0.00,WeatherDisplay:10.37,2013-05-25 17:17:00,
2013-05-25 13:22:00,53.8,35.6,30.24,WNW,292,3.4,4.6,50,0.00,SCT,,0.00,WeatherDisplay:10.37,2013-05-25 17:22:00,
2013-05-25 13:27:00,54.5,36.2,30.24,West,270,7.1,9.2,50,0.00,SCT,,0.00,WeatherDisplay:10.37,2013-05-25 17:27:00,
2013-05-25 13:32:00,54.0,35.8,30.23,West,270,7.2,9.2,50,0.00,SCT,,0.00,WeatherDisplay:10.37,2013-05-25 17:32:00,
2013-05-25 13:37:00,54.3,36.0,30.23,WSW,248,6.8,9.2,50,0.00,SCT,,0.00,WeatherDisplay:10.37,2013-05-25 17:37:00,
2013-05-25 13:42:00,56.1,37.2,30.23,West,270,8.0,10.4,49,0.00,SCT,,0.00,WeatherDisplay:10.37,2013-05-25 17:42:00,
2013-05-25 13:47:00,54.0,34.7,30.23,ESE,112,6.0,6.9,48,0.00,SCT,,0.00,WeatherDisplay:10.37,2013-05-25 17:47:00,
2013-05-25 13:52:00,54.5,34.7,30.23,WNW,292,8.5,9.2,47,0.00,SCT,,0.00,WeatherDisplay:10.37,2013-05-25 17:52:00,
2013-05-25 13:57:00,55.0,36.7,30.22,WSW,248,3.8,6.3,50,0.00,SCT,,0.00,WeatherDisplay:10.37,2013-05-25 17:57:00,
2013-05-25 14:02:00,54.3,34.5,30.22,NW,315,7.7,10.4,47,0.00,SCT,,0.00,WeatherDisplay:10.37,2013-05-25 18:02:00,
2013-05-25 14:07:00,55.8,37.4,30.22,WNW,292,6.5,8.1,50,0.00,SCT,,0.00,WeatherDisplay:10.37,2013-05-25 18:07:00,
2013-05-25 14:12:00,54.9,35.6,30.22,WNW,292,7.8,9.2,48,0.00,SCT,,0.00,WeatherDisplay:10.37,2013-05-25 18:12:00,
2013-05-25 14:17:00,56.3,36.8,30.22,West,270,7.8,10.4,48,0.00,SCT,,0.00,WeatherDisplay:10.37,2013-05-25 18:17:00,
2013-05-25 14:22:00,56.5,36.5,30.21,West,270,6.0,9.2,47,0.00,SCT,,0.00,WeatherDisplay:10.37,2013-05-25 18:22:00,
2013-05-25 14:27:00,57.2,37.7,30.21,West,270,9.9,10.4,48,0.00,SCT,,0.00,WeatherDisplay:10.37,2013-05-25 18:27:00,
2013-05-25 14:32:00,56.5,36.5,30.21,WSW,248,6.3,10.9,47,0.00,SCT,,0.00,WeatherDisplay:10.37,2013-05-25 18:32:00,
2013-05-25 14:37:00,56.5,36.0,30.21,West,270,6.5,9.2,46,0.00,SCT,,0.00,WeatherDisplay:10.37,2013-05-25 18:37:00,
2013-05-25 14:42:00,56.3,35.2,30.20,West,270,9.6,10.4,45,0.00,SCT,,0.00,WeatherDisplay:10.37,2013-05-25 18:42:00,
2013-05-25 14:47:00,56.1,35.6,30.20,WSW,248,6.7,8.1,46,0.00,SCT,,0.00,WeatherDisplay:10.37,2013-05-25 18:47:00,
2013-05-25 14:52:00,55.6,34.6,30.20,ESE,112,4.0,4.6,45,0.00,SCT,,0.00,WeatherDisplay:10.37,2013-05-25 18:52:00,
2013-05-25 14:57:00,56.3,34.6,30.20,North,360,7.6,10.4,44,0.00,SCT,,0.00,WeatherDisplay:10.37,2013-05-25 18:57:00,
2013-05-25 15:02:00,56.7,36.7,30.20,NW,315,5.4,6.3,47,0.00,SCT,,0.00,WeatherDisplay:10.37,2013-05-25 19:02:00,
2013-05-25 15:07:00,57.6,35.8,30.20,NNW,338,3.9,10.4,44,0.00,SCT,,0.00,WeatherDisplay:10.37,2013-05-25 19:07:00,
2013-05-25 15:12:00,57.6,37.5,30.20,SW,225,4.3,5.8,47,0.00,SCT,,0.00,WeatherDisplay:10.37,2013-05-25 19:12:00,
2013-05-25 15:17:00,56.3,35.2,30.20,West,270,5.7,8.3,45,0.00,SCT,,0.00,WeatherDisplay:10.37,2013-05-25 19:17:00,
2013-05-25 15:22:00,57.7,36.5,30.20,West,270,8.6,11.5,45,0.00,SCT,,0.00,WeatherDisplay:10.37,2013-05-25 19:22:00,
2013-05-25 15:27:00,58.1,37.4,30.20,SW,225,6.5,7.8,46,0.00,SCT,,0.00,WeatherDisplay:10.37,2013-05-25 19:27:00,
2013-05-25 15:32:00,57.0,35.3,30.20,NNW,338,6.8,6.9,44,0.00,SCT,,0.00,WeatherDisplay:10.37,2013-05-25 19:32:00,
2013-05-25 15:37:00,57.2,35.5,30.20,NNE,22,8.0,10.4,44,0.00,SCT,,0.00,WeatherDisplay:10.37,2013-05-25 19:37:00,
2013-05-25 15:42:00,57.9,36.7,30.20,West,270,6.9,8.3,45,0.00,SCT,,0.00,WeatherDisplay:10.37,2013-05-25 19:42:00,
2013-05-25 15:47:00,57.4,35.6,30.20,SSE,158,7.6,9.2,44,0.00,SCT,,0.00,WeatherDisplay:10.37,2013-05-25 19:47:00,
2013-05-25 15:52:00,57.4,35.1,30.20,SW,225,8.0,10.4,43,0.00,SCT,,0.00,WeatherDisplay:10.37,2013-05-25 19:52:00,
2013-05-25 15:57:00,57.9,36.7,30.20,West,270,7.2,10.4,45,0.00,SCT,,0.00,WeatherDisplay:10.37,2013-05-25 19:57:00,
2013-05-25 16:02:00,57.6,35.2,30.20,WSW,248,9.9,15.0,43,0.00,SCT,,0.00,WeatherDisplay:10.37,2013-05-25 20:02:00,
2013-05-25 16:07:00,57.2,34.9,30.19,NW,315,5.6,8.1,43,0.00,SCT,,0.00,WeatherDisplay:10.37,2013-05-25 20:07:00,
2013-05-25 16:12:00,57.7,35.9,30.19,West,270,4.4,6.9,44,0.00,SCT,,0.00,WeatherDisplay:10.37,2013-05-25 20:12:00,
2013-05-25 16:17:00,57.6,35.8,30.19,WSW,248,9.5,13.8,44,0.00,SCT,,0.00,WeatherDisplay:10.37,2013-05-25 20:17:00,
2013-05-25 16:22:00,57.9,35.5,30.19,West,270,8.7,10.4,43,0.00,SCT,,0.00,WeatherDisplay:10.37,2013-05-25 20:22:00,
2013-05-25 16:27:00,57.9,36.1,30.19,SW,225,7.0,10.9,44,0.00,SCT,,0.00,WeatherDisplay:10.37,2013-05-25 20:27:00,
2013-05-25 16:32:00,57.7,35.9,30.19,NNE,22,8.1,10.4,44,0.00,SCT,,0.00,WeatherDisplay:10.37,2013-05-25 20:32:00,
2013-05-25 16:37:00,57.7,34.7,30.19,NW,315,7.6,9.2,42,0.00,SCT,,0.00,WeatherDisplay:10.37,2013-05-25 20:37:00,
2013-05-25 16:42:00,58.3,35.3,30.19,NW,315,9.3,12.7,42,0.00,SCT,,0.00,WeatherDisplay:10.37,2013-05-25 20:42:00,
2013-05-25 16:47:00,57.4,35.1,30.19,WSW,248,9.4,11.5,43,0.00,SCT,,0.00,WeatherDisplay:10.37,2013-05-25 20:47:00,
2013-05-25 16:52:00,57.9,36.1,30.19,West,270,5.2,6.9,44,0.00,SCT,,0.00,WeatherDisplay:10.37,2013-05-25 20:52:00,
2013-05-25 16:57:00,58.6,35.6,30.19,NW,315,8.9,11.5,42,0.00,SCT,,0.00,WeatherDisplay:10.37,2013-05-25 20:57:00,
2013-05-25 17:02:00,58.3,38.7,30.19,NW,315,8.0,10.4,48,0.00,SCT,,0.00,WeatherDisplay:10.37,2013-05-25 21:02:00,
2013-05-25 17:07:00,57.9,39.4,30.18,NW,315,8.8,9.2,50,0.00,SCT,,0.00,WeatherDisplay:10.37,2013-05-25 21:07:00,
2013-05-25 17:12:00,57.6,39.6,30.18,WSW,248,8.2,10.4,51,0.00,SCT,,0.00,WeatherDisplay:10.37,2013-05-25 21:12:00,
2013-05-25 17:17:00,58.1,40.6,30.19,West,270,8.8,10.9,52,0.00,SCT,,0.00,WeatherDisplay:10.37,2013-05-25 21:17:00,
2013-05-25 17:22:00,58.3,40.2,30.19,West,270,9.2,9.2,51,0.00,SCT,,0.00,WeatherDisplay:10.37,2013-05-25 21:22:00,
2013-05-25 17:27:00,57.6,39.1,30.19,West,270,9.5,12.4,50,0.00,SCT,,0.00,WeatherDisplay:10.37,2013-05-25 21:27:00,
2013-05-25 17:32:00,56.8,39.4,30.19,West,270,7.1,11.5,52,0.00,SCT,,0.00,WeatherDisplay:10.37,2013-05-25 21:32:00,
2013-05-25 17:37:00,57.7,40.2,30.19,West,270,6.9,7.3,52,0.00,SCT,,0.00,WeatherDisplay:10.37,2013-05-25 21:37:00,
2013-05-25 17:42:00,57.0,39.5,30.19,West,270,9.7,11.5,52,0.00,SCT,,0.00,WeatherDisplay:10.37,2013-05-25 21:42:00,
2013-05-25 17:47:00,56.8,39.4,30.19,WNW,292,9.6,12.4,52,0.00,SCT,,0.00,WeatherDisplay:10.37,2013-05-25 21:47:00,
2013-05-25 17:52:00,57.0,39.5,30.19,SW,225,5.9,8.1,52,0.00,SCT,,0.00,WeatherDisplay:10.37,2013-05-25 21:52:00,
2013-05-25 17:57:00,57.9,39.9,30.19,WSW,248,6.2,8.1,51,0.00,SCT,,0.00,WeatherDisplay:10.37,2013-05-25 21:57:00,
2013-05-25 18:02:00,57.4,39.9,30.19,SW,225,7.8,10.4,52,0.00,SCT,,0.00,WeatherDisplay:10.37,2013-05-25 22:02:00,
2013-05-25 18:07:00,57.7,39.7,30.18,WSW,248,7.7,10.4,51,0.00,SCT,,0.00,WeatherDisplay:10.37,2013-05-25 22:07:00,
2013-05-25 18:12:00,58.1,40.1,30.18,SW,225,6.6,9.4,51,0.00,SCT,,0.00,WeatherDisplay:10.37,2013-05-25 22:12:00,
2013-05-25 18:17:00,57.6,40.1,30.18,SW,225,6.2,8.1,52,0.00,SCT,,0.00,WeatherDisplay:10.37,2013-05-25 22:17:00,
2013-05-25 18:22:00,57.9,40.4,30.18,West,270,9.4,10.4,52,0.00,SCT,,0.00,WeatherDisplay:10.37,2013-05-25 22:22:00,
2013-05-25 18:27:00,57.9,40.9,30.18,WNW,292,6.1,8.1,53,0.00,SCT,,0.00,WeatherDisplay:10.37,2013-05-25 22:27:00,
2013-05-25 18:32:00,57.2,40.7,30.18,SW,225,7.6,9.9,54,0.00,SCT,,0.00,WeatherDisplay:10.37,2013-05-25 22:32:00,
2013-05-25 18:37:00,57.9,40.9,30.18,WNW,292,5.4,6.3,53,0.00,SCT,,0.00,WeatherDisplay:10.37,2013-05-25 22:37:00,
2013-05-25 18:42:00,58.8,40.7,30.18,SW,225,4.6,8.3,51,0.00,SCT,,0.00,WeatherDisplay:10.37,2013-05-25 22:42:00,
2013-05-25 18:47:00,58.6,41.0,30.18,WSW,248,5.3,6.9,52,0.00,SCT,,0.00,WeatherDisplay:10.37,2013-05-25 22:47:00,
2013-05-25 18:52:00,58.1,41.0,30.18,SW,225,6.4,8.1,53,0.00,SCT,,0.00,WeatherDisplay:10.37,2013-05-25 22:52:00,
2013-05-25 18:57:00,57.9,40.9,30.18,SW,225,6.6,8.1,53,0.00,SCT,,0.00,WeatherDisplay:10.37,2013-05-25 22:57:00,
2013-05-25 19:02:00,58.1,41.0,30.18,WSW,248,6.8,9.2,53,0.00,SCT,,0.00,WeatherDisplay:10.37,2013-05-25 23:02:00,
2013-05-25 19:07:00,58.1,41.0,30.18,West,270,4.9,5.8,53,0.00,SCT,,0.00,WeatherDisplay:10.37,2013-05-25 23:07:00,
2013-05-25 19:12:00,59.2,41.6,30.18,SSW,202,5.2,5.8,52,0.00,SCT,,0.00,WeatherDisplay:10.37,2013-05-25 23:12:00,
2013-05-25 19:17:00,58.8,42.2,30.18,West,270,4.3,5.8,54,0.00,SCT,,0.00,WeatherDisplay:10.37,2013-05-25 23:17:00,
2013-05-25 19:22:00,58.5,41.9,30.18,West,270,4.0,5.3,54,0.00,SCT,,0.00,WeatherDisplay:10.37,2013-05-25 23:22:00,
2013-05-25 19:27:00,58.1,39.0,30.18,WSW,248,6.1,7.3,49,0.00,SCT,,0.00,WeatherDisplay:10.37,2013-05-25 23:27:00,
2013-05-25 19:32:00,57.7,37.0,30.19,West,270,4.4,8.1,46,0.00,SCT,,0.00,WeatherDisplay:10.37,2013-05-25 23:32:00,
2013-05-25 19:37:00,57.0,36.4,30.19,WSW,248,8.9,10.4,46,0.00,SCT,,0.00,WeatherDisplay:10.37,2013-05-25 23:37:00,
2013-05-25 19:42:00,57.4,36.8,30.19,WSW,248,4.4,6.9,46,0.00,SCT,,0.00,WeatherDisplay:10.37,2013-05-25 23:42:00,
2013-05-25 19:47:00,57.0,37.5,30.19,SSW,202,4.8,6.9,48,0.00,SCT,,0.00,WeatherDisplay:10.37,2013-05-25 23:47:00,
2013-05-25 19:52:00,56.7,37.2,30.19,NW,315,6.0,8.1,48,0.00,SCT,,0.00,WeatherDisplay:10.37,2013-05-25 23:52:00,
2013-05-25 19:57:00,56.5,37.0,30.19,WNW,292,5.6,6.9,48,0.00,SCT,,0.00,WeatherDisplay:10.37,2013-05-25 23:57:00,
2013-05-25 20:02:00,56.3,36.8,30.19,West,270,3.8,5.8,48,0.00,SCT,,0.00,WeatherDisplay:10.37,2013-05-26 00:02:00,
2013-05-25 20:07:00,56.3,36.8,30.18,WNW,292,2.6,3.7,48,0.00,SCT,,0.00,WeatherDisplay:10.37,2013-05-26 00:07:00,
2013-05-25 20:12:00,55.8,36.9,30.18,West,270,4.4,5.8,49,0.00,SCT,,0.00,WeatherDisplay:10.37,2013-05-26 00:12:00,
2013-05-25 20:17:00,54.7,36.4,30.19,WSW,248,4.4,6.3,50,0.00,SCT,,0.00,WeatherDisplay:10.37,2013-05-26 00:17:00,
2013-05-25 20:22:00,53.8,36.1,30.19,SW,225,3.8,4.6,51,0.00,SCT,,0.00,WeatherDisplay:10.37,2013-05-26 00:22:00,
2013-05-25 20:27:00,53.2,36.0,30.19,SW,225,3.2,3.5,52,0.00,SCT,,0.00,WeatherDisplay:10.37,2013-05-26 00:27:00,
2013-05-25 20:32:00,52.7,36.0,30.19,West,270,4.4,5.8,53,0.00,SCT,,0.00,WeatherDisplay:10.37,2013-05-26 00:32:00,
2013-05-25 20:37:00,52.5,36.3,30.19,West,270,4.3,4.7,54,0.00,SCT,,0.00,WeatherDisplay:10.37,2013-05-26 00:37:00,
2013-05-25 20:42:00,52.2,36.5,30.18,SSW,202,2.2,4.6,55,0.00,SCT,,0.00,WeatherDisplay:10.37,2013-05-26 00:42:00,
2013-05-25 20:47:00,51.8,36.6,30.18,NW,315,3.9,4.6,56,0.00,SCT,,0.00,WeatherDisplay:10.37,2013-05-26 00:47:00,
2013-05-25 20:52:00,51.4,36.2,30.18,West,270,2.6,3.2,56,0.00,SCT,,0.00,WeatherDisplay:10.37,2013-05-26 00:52:00,
2013-05-25 20:57:00,51.1,35.9,30.18,NW,315,0.3,2.7,56,0.00,SCT,,0.00,WeatherDisplay:10.37,2013-05-26 00:57:00,
2013-05-25 21:02:00,50.7,36.0,30.18,WNW,292,2.3,4.6,57,0.00,SCT,,0.00,WeatherDisplay:10.37,2013-05-26 01:02:00,
2013-05-25 21:07:00,50.4,36.2,30.18,WNW,292,3.1,4.7,58,0.00,SCT,,0.00,WeatherDisplay:10.37,2013-05-26 01:07:00,
2013-05-25 21:12:00,50.4,36.2,30.18,WSW,248,3.3,3.5,58,0.00,FEW,,0.00,WeatherDisplay:10.37,2013-05-26 01:12:00,
2013-05-25 21:17:00,50.5,35.8,30.18,West,270,3.3,6.3,57,0.00,FEW,,0.00,WeatherDisplay:10.37,2013-05-26 01:17:00,
2013-05-25 21:22:00,50.4,35.7,30.18,SW,225,1.3,3.5,57,0.00,FEW,,0.00,WeatherDisplay:10.37,2013-05-26 01:22:00,
2013-05-25 21:27:00,50.4,35.7,30.18,WNW,292,4.2,5.8,57,0.00,FEW,,0.00,WeatherDisplay:10.37,2013-05-26 01:27:00,
2013-05-25 21:32:00,49.8,35.6,30.18,SW,225,0.9,3.5,58,0.00,FEW,,0.00,WeatherDisplay:10.37,2013-05-26 01:32:00,
2013-05-25 21:37:00,49.8,36.0,30.18,NW,315,3.9,5.8,59,0.00,FEW,,0.00,WeatherDisplay:10.37,2013-05-26 01:37:00,
2013-05-25 21:42:00,49.8,36.0,30.18,North,360,3.7,4.6,59,0.00,FEW,,0.00,WeatherDisplay:10.37,2013-05-26 01:42:00,
2013-05-25 21:47:00,49.8,35.6,30.18,SW,225,3.0,3.5,58,0.00,FEW,,0.00,WeatherDisplay:10.37,2013-05-26 01:47:00,
2013-05-25 21:52:00,49.6,35.8,30.19,WSW,248,3.8,4.6,59,0.00,FEW,,0.00,WeatherDisplay:10.37,2013-05-26 01:52:00,
2013-05-25 21:57:00,49.5,35.8,30.19,WSW,248,4.1,5.8,59,0.00,FEW,,0.00,WeatherDisplay:10.37,2013-05-26 01:57:00,
2013-05-25 22:02:00,49.5,35.8,30.19,WSW,248,4.3,4.6,59,0.00,FEW,,0.00,WeatherDisplay:10.37,2013-05-26 02:02:00,
2013-05-25 22:07:00,49.5,35.8,30.19,West,270,6.0,6.9,59,0.00,FEW,,0.00,WeatherDisplay:10.37,2013-05-26 02:07:00,
2013-05-25 22:12:00,49.3,35.6,30.19,SW,225,2.1,2.3,59,0.00,FEW,,0.00,WeatherDisplay:10.37,2013-05-26 02:12:00,
2013-05-25 22:17:00,49.1,35.4,30.19,NW,315,5.9,9.2,59,0.00,FEW,,0.00,WeatherDisplay:10.37,2013-05-26 02:17:00,
2013-05-25 22:22:00,49.1,35.4,30.19,WNW,292,3.9,5.8,59,0.00,FEW,,0.00,WeatherDisplay:10.37,2013-05-26 02:22:00,
2013-05-25 22:27:00,49.1,35.8,30.19,NW,315,3.8,8.1,60,0.00,FEW,,0.00,WeatherDisplay:10.37,2013-05-26 02:27:00,
2013-05-25 22:32:00,48.9,35.6,30.19,West,270,4.2,5.8,60,0.00,FEW,,0.00,WeatherDisplay:10.37,2013-05-26 02:32:00,
2013-05-25 22:37:00,49.1,35.4,30.19,SSW,202,4.1,5.8,59,0.00,FEW,,0.00,WeatherDisplay:10.37,2013-05-26 02:37:00,
2013-05-25 22:42:00,49.1,35.4,30.19,SW,225,3.5,4.7,59,0.00,FEW,,0.00,WeatherDisplay:10.37,2013-05-26 02:42:00,
2013-05-25 22:47:00,49.1,35.4,30.19,SW,225,4.9,6.9,59,0.00,FEW,,0.00,WeatherDisplay:10.37,2013-05-26 02:47:00,
2013-05-25 22:52:00,49.1,35.4,30.19,SW,225,3.9,5.8,59,0.00,FEW,,0.00,WeatherDisplay:10.37,2013-05-26 02:52:00,
2013-05-25 22:57:00,48.7,35.4,30.19,WNW,292,4.8,5.8,60,0.00,FEW,,0.00,WeatherDisplay:10.37,2013-05-26 02:57:00,
2013-05-25 23:02:00,48.6,35.3,30.19,West,270,2.8,3.5,60,0.00,FEW,,0.00,WeatherDisplay:10.37,2013-05-26 03:02:00,
2013-05-25 23:07:00,48.4,35.1,30.19,SW,225,5.9,8.1,60,0.00,FEW,,0.00,WeatherDisplay:10.37,2013-05-26 03:07:00,
2013-05-25 23:12:00,48.4,35.6,30.19,WSW,248,5.4,6.9,61,0.00,FEW,,0.00,WeatherDisplay:10.37,2013-05-26 03:12:00,
2013-05-25 23:17:00,48.2,35.4,30.19,SW,225,1.8,3.5,61,0.00,FEW,,0.00,WeatherDisplay:10.37,2013-05-26 03:17:00,
2013-05-25 23:22:00,48.0,35.2,30.19,West,270,5.1,5.8,61,0.00,FEW,,0.00,WeatherDisplay:10.37,2013-05-26 03:22:00,
2013-05-25 23:27:00,48.0,35.2,30.19,WSW,248,2.8,3.5,61,0.00,FEW,,0.00,WeatherDisplay:10.37,2013-05-26 03:27:00,
2013-05-25 23:32:00,48.0,35.2,30.18,SW,225,3.7,4.6,61,0.00,FEW,,0.00,WeatherDisplay:10.37,2013-05-26 03:32:00,
2013-05-25 23:37:00,48.0,34.8,30.18,SSW,202,3.9,5.3,60,0.00,FEW,,0.00,WeatherDisplay:10.37,2013-05-26 03:37:00,
2013-05-25 23:42:00,48.0,34.8,30.18,WNW,292,4.0,4.6,60,0.00,FEW,,0.00,WeatherDisplay:10.37,2013-05-26 03:42:00,
2013-05-25 23:47:00,48.0,34.8,30.18,West,270,5.1,6.9,60,0.00,FEW,,0.00,WeatherDisplay:10.37,2013-05-26 03:47:00,
2013-05-25 23:52:00,48.0,34.8,30.18,WSW,248,5.8,6.9,60,0.00,FEW,,0.00,WeatherDisplay:10.37,2013-05-26 03:52:00,
2013-05-25 23:57:00,48.0,34.8,30.18,West,270,5.1,8.1,60,0.00,FEW,,0.00,WeatherDisplay:10.37,2013-05-26 03:57:00,